This is the latest recevied weather packets stored in our database for station/object K5OLV. If no packets are shown the sender has not sent any weather packets the latest 10 day(s).
| Time | Temp. | Humidity | Pressure | Rain* | Wind** | Luminosity | Snow |
|---|---|---|---|---|---|---|---|
| 1788562580 | 31.11° C | 68% | 1013.6 hPa | 0 mm | - | 37 W/m² | - |
| 1788562275 | 31.67° C | 68% | 1013.5 hPa | 0 mm | - | 55 W/m² | - |
| 1788561969 | 31.67° C | 68% | 1013.6 hPa | 0 mm | - | 69 W/m² | - |
| 1788561664 | 31.67° C | 68% | 1013.8 hPa | 0 mm | - | 88 W/m² | - |
| 1788561363 | 31.67° C | 66% | 1014 hPa | 0 mm | - | 93 W/m² | - |
| 1788561059 | 32.78° C | 62% | 1013.4 hPa | 0 mm | - | 88 W/m² | - |
| 1788560755 | 32.78° C | 59% | 1013.6 hPa | 0 mm | - | 122 W/m² | - |
| 1788560450 | 32.22° C | 58% | 1013.6 hPa | 0 mm | - | 130 W/m² | - |
| 1788560150 | 32.78° C | 57% | 1013.6 hPa | 0 mm | - | 180 W/m² | - |
| 1788559845 | 32.78° C | 60% | 1013.5 hPa | 0 mm | - | 167 W/m² | - |
| 1788559544 | 33.33° C | 56% | 1013.4 hPa | 0 mm | - | 185 W/m² | - |
| 1788559240 | 32.78° C | 54% | 1013.2 hPa | 0 mm | - | 246 W/m² | - |
| 1788558940 | 32.22° C | 57% | 1013.2 hPa | 0 mm | - | 272 W/m² | - |
| 1788558636 | 32.22° C | 58% | 1013.3 hPa | 0 mm | - | 285 W/m² | - |
| 1788558331 | 32.22° C | 57% | 1013.1 hPa | 0 mm | - | 169 W/m² | - |
| 1788558027 | 32.78° C | 57% | 1013.3 hPa | 0 mm | - | 219 W/m² | - |
| 1788557724 | 32.78° C | 56% | 1013.4 hPa | 0 mm | - | 239 W/m² | - |
| 1788557422 | 32.78° C | 57% | 1013.6 hPa | 0 mm | - | 272 W/m² | - |
| 1788557121 | 32.78° C | 56% | 1013.4 hPa | 0 mm | - | 229 W/m² | - |
| 1788556816 | 33.33° C | 56% | 1013.5 hPa | 0 mm | - | 284 W/m² | - |
| 1788556510 | 33.33° C | 56% | 1013.5 hPa | 0 mm | - | 342 W/m² | - |
| 1788556206 | 33.33° C | 56% | 1013.8 hPa | 0 mm | - | 305 W/m² | - |
| 1788555905 | 33.33° C | 54% | 1013.6 hPa | 0 mm | - | 348 W/m² | - |
| 1788555601 | 33.89° C | 54% | 1013.8 hPa | 0 mm | - | 363 W/m² | - |
| 1788555296 | 34.44° C | 53% | 1013.6 hPa | 0 mm | - | 442 W/m² | - |
* Rain latest hour (hover to see other rain measurements)
** Current wind speed in m/s (hover to see current wind gust speed)